{"data":{"norad_id":59631,"epoch":"2026-05-25T04:15:42.621696Z","epoch_age_seconds":66483,"freshness":"FRESH","line1":"1 59631U 24082A   26145.17757664 -.00003308  00000+0 -11069-3 0  9996","line2":"2 59631  43.0042  67.5135 0001358 269.1105  90.9591 15.27595426116712","mean_motion":15.27595426,"eccentricity":0.0001358,"inclination_deg":43.0042,"raan_deg":67.5135,"arg_perigee_deg":269.1105,"mean_anomaly_deg":90.9591,"bstar":-0.00011069,"rev_number":11671,"period_min":94.265796786956,"perigee_km":482.07116263573,"apogee_km":483.93464823404,"semimajor_km":6861.1399054349,"source":"CELESTRAK","updated_at":"2026-05-25T13:38:19.012458Z"}}